www.pogodaiklimat.ru
ПОГОДА в Бардстауне
Время
и дата
04:35 07.02
04:55 07.02
05:15 07.02
05:35 07.02
05:55 07.02
06:15 07.02
06:35 07.02
06:55 07.02
07:15 07.02
07:35 07.02
07:55 07.02
08:15 07.02
08:35 07.02
08:55 07.02
09:15 07.02
09:35 07.02
09:55 07.02
10:15 07.02
10:35 07.02
10:55 07.02
11:15 07.02
11:35 07.02
11:55 07.02
12:15 07.02
12:35 07.02
12:55 07.02
13:15 07.02
13:35 07.02
13:55 07.02
14:15 07.02
14:35 07.02
14:55 07.02
15:15 07.02
15:35 07.02
15:55 07.02
16:15 07.02
16:35 07.02
16:55 07.02
17:15 07.02
17:35 07.02
17:55 07.02
18:15 07.02
18:35 07.02
18:55 07.02
19:15 07.02
19:35 07.02
19:55 07.02
20:15 07.02
Ветер
(напр.,м/с)
Видим. Явления Облачность Т
(С)
Тd
(С)
f
(%)
Тe
(С)
Тes
(С)
Комфортность P
(гПа)
Po
(гПа)
Тmin
(С)
Tmax
(С)
R
(мм)
R24
(мм)
S
(см)
Ю 2 16 км 5/0 6600 m
[Ci]
+8.8 -1.5 48 +8 +8 995.9
Ю 2 16 км 2/0 6900 m
[Ci]
+8.7 -1.6 48 +7 +7 995.5
Ю 2 16 км 2/0 6000 m
[Ac]
+8.1 -1.1 52 +7 +7 995.5
Ю 2 16 км 2/0 6000 m
[Ac]
+8.8 -1.3 49 +8 +8 995.5
Ю 2 16 км 5/0 6000 m
[Ac Ci]
+9.2 -1.2 48 +8 +8 995.5
штиль 0 16 км 10/0 6000 m
[Ac Ci]
+10.2 -0.7 47 +10 +10 995.5
ЮЗ 4 16 км 10/0 6600 m
[Ci]
+11.0 -0.3 46 +9 +9 995.9
Ю 4 16 км 10/0 6300 m
[Ci]
+11.4 -0.5 44 +10 +10 995.9
Ю 5 16 км 8/0 6000 m
[Ac]
+11.4 -0.2 45 +9 +9 995.9
ЮЗ 4 16 км 5/0 6000 m
[Ac]
+11.5 -0.3 44 +10 +10 996.2
ЮЗ 3 16 км 8/5 1800 m
[Ci]
+11.4 -0.1 45 +10 +10 996.8
ЮЗ 4 16 км 10/10 1800 м +11.6 -0.1 44 +10 +10 997.2
Ю 3 16 км 8/8 1800 m
[Ci]
+11.6 +0.1 45 +10 +10 996.8
Ю 4 16 км 2/2 1800 м +12.0 +0.4 45 +10 +10 996.8
Ю 4 16 км 8/8 1800 m
[Ci]
+12.5 +0.6 44 +11 +11 997.2
ЮЗ 3
{8}
16 км 10/10 1650 м +12.9 +1.2 45 +12 +12 997.5
ЮЗ 5 16 км 10/10 1500 м +13.2 +1.4 45 +11 +11 997.2
ЮЗ 6
{9}
16 км 10/10 1500 м +13.6 +1.7 44 +12 +12 997.5
ЮЗ 6 16 км 10/10 1650 м +14.1 +2.1 44 +12 +12 997.5
Ю 5
{8}
16 км 8/8 1650 m
[Ci]
+14.7 +2.6 44 +13 +14 997.5
ЮЗ 4 16 км 8/8 1800 m
[Ac]
+15.5 +3.1 43 +15 +16 997.5
Ю 5 16 км 8/8 1650 м +15.9 +3.7 44 +15 +16 997.5
ЮЗ 3 16 км 8/5 1650 m
[Ac]
+16.2 +4.2 45 +16 +17 997.5
ЮЗ 5
{9}
16 км 10/8 1500 m
[Ac]
+16.4 +4.3 45 +16 +16 997.5
ЮЗ 4
{9}
16 км 10/10 1500 м +17.4 +4.7 43 +17 +17 997.2
ЮЗ 4 16 км 10/10 1650 м +18.0 +5.1 43 +18 +18 996.8
ЮЗ 4
{9}
16 км 10/10 1650 м +17.6 +5.5 45 +17 +17 996.8
ЮЗ 4 16 км 8/8 1800 m
[Ci]
+17.9 +6.0 46 +18 +19 995.9
ЮЗ 6
{9}
16 км 2/0 6900 m
[Ci]
+18.6 +6.0 44 +18 +21 995.9
ЮЗ 7
{12}
16 км 8/5 1650 m
[Ci]
+18.2 +6.6 47 +18 +18 995.9
З 8
{11}
16 км 10/10 1500 м +18.0 +6.8 48 +17 +17 995.9
З 7
{12}
16 км 8/8 1410 m
[Ac]
+17.6 +6.9 49 +17 +17 995.9
ЮЗ 6
{8}
16 км 8/5 1380 m
[Ac]
+18.0 +7.1 49 +17 +18 995.9
ЮЗ 5
{9}
16 км 8/8 1350 м +18.1 +7.4 50 +18 +18 995.9
ЮЗ 4
{8}
16 км 8/5 1350 m
[Ci]
+18.1 +7.7 51 +18 +19 995.9
ЮЗ 6
{10}
16 км 8/2 1410 m
[Ac Ci]
+18.0 +7.7 51 +17 +18 996.2
ЮЗ 6
{10}
14 км 10/5 1500 m
[Ac]
+17.6 +7.6 52 +17 +17 996.5
ЮЗ 6 16 км 8/2 1500 m
[Ac]
+17.8 +7.9 52 +17 +18 996.5
ЮЗ 4 16 км 10/2 1650 m
[Ac]
+17.4 +7.9 54 +17 +17 996.8
ЮЗ 4 16 км 10/8 1500 m
[Ac]
+17.2 +7.8 54 +17 +17 997.2
ЮЗ 3 16 км 10/10 1500 м +17.1 +7.9 55 +17 +17 996.8
ЮЗ 3 16 км 10/10 1650 м +16.9 +7.9 55 +17 +17 997.2
ЮЗ 2 16 км 10/10 1650 м +16.6 +7.9 56 +17 +17 997.2
З 2 16 км 10/10 1800 м +16.5 +7.9 57 +17 +17 997.5
З 2 16 км 10/10 1800 м +16.3 +7.9 57 +16 +16 997.8
З 3 16 км 10/0 2100 m
[Ac]
+15.8 +8.2 61 +15 +15 997.8
З 2 16 км 10/10 1950 м +15.4 +9.7 69 +15 +15 998.2
СЗ 4 16 км 10/10 1650 м +15.1 +9.7 70 +14 +14 998.5
Местоположение метеостанции Samuels Field Airport: широта 37.8143 долгота -85.4996 высота над уровнем моря 192 м.
В архиве по умолчанию представлена погода в Бардстауне за последние 1-2 суток. Обновление информации о фактической погоде в базе происходит ежечасно! Архивные данные за месяц целиком и за предыдущие месяцы Вы можете получить, выбрав интересующий диапазон дат из раскрывающегося списка и нажав кнопку "Ввод!".
Внимание! Архив погоды МЕТАР в базе сайта по станциям, не включенным в климатический монитор, хранится не более 60 дней. Нет смысла пытаться выбрать более раннюю дату.
*Определитесь, кто Вы:
Внимание! Время в таблицах - местное (без учета летнего времени). Для получения всемирного времени необходимо вычесть поправку, которая равна -5 ч.
Смотрите также архив погоды в соседних городах и на ближайших метеорологических станциях:
Партнеры нашего сайта:      
Пояснения к столбцам:
  • Ветер - указаны скорость ветра в м/с - средняя за 10 мин, порывы в срок и между сроками (в фигурных скобках) и направление, откуда дует ветер: С - северный,
  • СВ - северо-восточный, В - восточный, ЮВ - юго-восточный, Ю - южный, ЮЗ - юго-западный, З - западный, СЗ - северо-западный.
  • Видимость - горизонтальная дальность видимости в метрах или километрах. При видимости от 1 до 10 км при отсутствии осадков обычно наблюдается дымка, при ухудшении видимости до 1 км и менее - туман. В сухую погоду видимость может ухудшаться дымом, пылью или мглою.
  • Явления - указаны атмосферные явления, наблюдавшиеся в срок или в последний час перед сроком; фигурными скобками обозначены явления, наблюдавшиеся между сроками (за 1-3 часа до срока); квадратными скобками обозначены град или гололедные отложения с указанием их диаметра в мм.
  • Облачность - указаны через наклонную черту общая и нижняя облачность в баллах и высота нижней границы облаков в метрах; квадратными скобками обозначены формы облаков: Ci - перистые, Cs - перисто-слоистые, Cc - перисто-кучевые, Ac - высококучевые, As - высокослоистые, Sc - слоисто-кучевые, Ns - слоисто-дождевые, Cu - кучевые, Cb - кучево-дождевые. Подробнее классификацию облаков см. в Атласе облаков (PDF).
  • T - Температура воздуха - температура, измеренная на высоте 2 м над землей.
  • Td - Температура точки росы - температура, при понижении до которой содержащийся в воздухе водяной пар достигнет насыщения.
  • f - Относительная влажность воздуха - влажноcть воздуха, измеренная на высоте 2 м над землей.
  • Te - Эффективная температура - температура, которую ощущает одетый по сезону человек в тени. Характеристика душности погоды. При расчете учитывается влияние влажности воздуха и скорости ветра на теплоощущения человека.
  • Tes - Эффективная температура на солнце - температура, которую ощущает человек, с поправкой на солнечный нагрев. Характеристика знойности погоды. Зависит от высоты солнца над горизонтом, облачности и скорости ветра. Ночью, в пасмурную погоду, а также при ветре 12 м/с и более поправка равна нулю.
  • P - Атмосферное давление - приведенное к уровню моря атмосферное давление.
  • Po - Атмосферное давление - измеренное на уровне метеостанции атмосферное давление.
  • Tmin - Минимальная температура - минимум температуры воздуха на высоте 2 м над землей.
  • Tmax - Максимальная температура - максимум температуры воздуха на высоте 2 м над землей.
  • R - Количество осадков - Количество выпавших осадков за период времени, мм. При наведении курсора мыши на число - период времени, за который выпало указанное количество осадков.
  • R24 - Количество осадков - Количество выпавших осадков за 24 часа, мм.
  • S - Снежный покров - Высота снежного покрова, см. При наведении курсора мыши на число - состояние снежного покрова и степень покрытия местности в баллах.